Other Public Products
Issued by NWS Charleston, SC

Home | Current Version | Previous Version | Text Only | Print | Product List | Glossary On
Versions: 1 2 3 4 5 6 7 8 9 10 11 12 13 14 15 16 17 18 19 20 21 22 23 24 25 26 27 28 29 30 31 32 33 34 35 36 37 38 39 40 41 42 43 44 45 46 47 48 49 50
000
FPUS82 KCHS 231827
OPUCHS

TEST...KCHS/KSAV Gateway Observations...TEST
National Weather Service Charleston SC
200 PM EDT MON APR 23 2018

NOTE: "fair" indicates few or no clouds below 12,000 feet with no
significant weather and/or obstructions to visibility.

SCZ050-WAZ558-NCZ071-TXZ119-213-PAZ071-DCZ001-FLZ074-172-MI076-
NYZ176-178-MAZ016-IL014-TNZ027-NJZ106-GAZ044-MD014-231900-

...Gateway Observations for Charleston International...

CITY           SKY/WX    TMP DP  RH WIND       PRES   REMARKS
Chas Airport   LGT RAIN  67  65  93 E26G33    30.05F FOG
6HR MIN TEMP:  64; 6HR MAX TEMP:  68; 6HR PCP:  0.75;

Seattle        MOSUNNY   57  39  51 N9        30.34F
6HR MIN TEMP:  41; 6HR MAX TEMP:  58;

Charlotte      HVY RAIN  58  56  93 E14G23    30.18R FOG
6HR MIN TEMP:  54; 6HR MAX TEMP:  58; 6HR PCP:  0.30;

Dallas DFW     PTSUNNY   70  52  52 NW16      30.07F
6HR MIN TEMP:  52; 6HR MAX TEMP:  70;

Dallas Love    MOSUNNY   70  52  52 N16       30.08F
6HR MIN TEMP:  53; 6HR MAX TEMP:  71;

Philladelphia  FAIR      69  33  26 E5        30.43F
6HR MIN TEMP:  48; 6HR MAX TEMP:  69;

Wash National  CLOUDY    66  45  46 SE10G20   30.40S
6HR MIN TEMP:  53; 6HR MAX TEMP:  69;

Baltimore      PTSUNNY   66  41  40 E14G22    30.41F
6HR MIN TEMP:  53; 6HR MAX TEMP:  67;

Miami          LGT RAIN  80  74  81 SE15      30.03F
6HR MIN TEMP:  75; 6HR MAX TEMP:  84; 6HR PCP:  0.05;

Detroit        PTSUNNY   68  42  38 E7        30.19F
6HR MIN TEMP:  46; 6HR MAX TEMP:  69;

Newark         FAIR      64  34  32 E8        30.45F
6HR MIN TEMP:  50; 6HR MAX TEMP:  65;

Laguardia      FAIR      60  29  30 NE13      30.45F
6HR MIN TEMP:  48; 6HR MAX TEMP:  61;

J F K          FAIR      59  31  34 SE14      30.48S
6HR MIN TEMP:  49; 6HR MAX TEMP:  61;

Boston Logan   FAIR      56  22  26 E13       30.47F
6HR MIN TEMP:  49; 6HR MAX TEMP:  58;

Ft. Lauderdale PTSUNNY   80  74  81 SE14      30.03S
6HR MIN TEMP:  76; 6HR MAX TEMP:  84; 6HR PCP:  0.05;

Chicago O`Hare PTSUNNY   59  29  31 NE15      30.14F
6HR MIN TEMP:  45; 6HR MAX TEMP:  59;

Chicago Midway PTSUNNY   60  31  33 N13       30.13F
6HR MIN TEMP:  47; 6HR MAX TEMP:  60;

Houston Bush   FAIR      76  51  41 NW13      30.06F
6HR MIN TEMP:  54; 6HR MAX TEMP:  76;

Houston Hobby  FAIR      75  50  41 NW12G17   30.06F
6HR MIN TEMP:  55; 6HR MAX TEMP:  75;

Nashville      PTSUNNY   65  55  70 S10       29.91F
6HR MIN TEMP:  59; 6HR MAX TEMP:  70; 6HR PCP:  0.18;

Atlanta        CLOUDY    63  62  97 NE9       29.95F
6HR MIN TEMP:  59; 6HR MAX TEMP:  64; 6HR PCP:  0.24;


$$

GAZ044-118-TXZ119-213-NCZ071-DCZ001-MDZ014-506-PAZ021-071-NJZ106-
NYZ176-178-MAZ106-OHZ011-021-055-MIZ076-KYZ091-ILZ014-INZ047-
MNZ060-ONZ431-231900-

...Gateway Observations for Savannah International...

CITY           SKY/WX    TMP DP  RH WIND       PRES   REMARKS
Savannah Arpt  CLOUDY    72  69  90 SE12      29.99F
6HR MIN TEMP:  64; 6HR MAX TEMP:  73; 6HR PCP:  2.50;

Atlanta        CLOUDY    63  62  97 NE9       29.95F
6HR MIN TEMP:  59; 6HR MAX TEMP:  64; 6HR PCP:  0.24;

Charlotte      HVY RAIN  58  56  93 E14G23    30.18R FOG
6HR MIN TEMP:  54; 6HR MAX TEMP:  58; 6HR PCP:  0.30;

Dallas DFW     PTSUNNY   70  52  52 NW16      30.07F
6HR MIN TEMP:  52; 6HR MAX TEMP:  70;

Houston Bush   FAIR      76  51  41 NW13      30.06F
6HR MIN TEMP:  54; 6HR MAX TEMP:  76;

Wash National  CLOUDY    66  45  46 SE10G20   30.40S
6HR MIN TEMP:  53; 6HR MAX TEMP:  69;

Wash Dulles    PTSUNNY   67  44  43 S14G22    30.39S
6HR MIN TEMP:  47; 6HR MAX TEMP:  68;

Baltimore      PTSUNNY   66  41  40 E14G22    30.41F
6HR MIN TEMP:  53; 6HR MAX TEMP:  67;

Philadelphia   FAIR      69  33  26 E5        30.43F
6HR MIN TEMP:  48; 6HR MAX TEMP:  69;

Newark         FAIR      64  34  32 E8        30.45F
6HR MIN TEMP:  50; 6HR MAX TEMP:  65;

Laguardia      FAIR      60  29  30 NE13      30.45F
6HR MIN TEMP:  48; 6HR MAX TEMP:  61;

J F K          FAIR      59  31  34 SE14      30.48S
6HR MIN TEMP:  49; 6HR MAX TEMP:  61;

Boston         FAIR      56  22  26 E13       30.47F
6HR MIN TEMP:  49; 6HR MAX TEMP:  58;

Pittsburg      CLOUDY    70  37  29 S18G25    30.22F
6HR MIN TEMP:  53; 6HR MAX TEMP:  71;

Akron          PTSUNNY   71  40  32 SE13      30.20F
6HR MIN TEMP:  52; 6HR MAX TEMP:  72;

Cleveland      PTSUNNY   74  41  30 E10G18    30.20F
6HR MIN TEMP:  55; 6HR MAX TEMP:  74;

Cincinnati     LGT RAIN  54  53  97 E13       30.11F FOG
6HR MIN TEMP:  54; 6HR MAX TEMP:  57; 6HR PCP:  0.38;

Columbus       LGT RAIN  62  46  56 S10       30.17R
Detroit        PTSUNNY   68  42  38 E7        30.19F
6HR MIN TEMP:  46; 6HR MAX TEMP:  69;

Chicago O`Hare PTSUNNY   59  29  31 NE15      30.14F
6HR MIN TEMP:  45; 6HR MAX TEMP:  59;

Minneapolis    FAIR      66  35  31 VRB6      30.21F
6HR MIN TEMP:  43; 6HR MAX TEMP:  66;

Indianapolis   LGT RAIN  54  52  93 E12       30.09F
6HR MIN TEMP:  51; 6HR MAX TEMP:  56; 6HR PCP:  0.10;

Toronto Canada MOSUNNY   64  28  25 SE8       30.31F

$$




USA.gov is the U.S. government's official web portal to all federal, state and local government web resources and services.